User: anonymous   Login
Location: Unspecified
(0.0000°N, 0.0000°E)
Time: 06:42:49
(UTC+00:00)
Language:

SO-50 - Orbit

View from above orbital plane
View from above orbital plane
View from above satellite
View from above satellite

Ground track
Ground track

The orbit data is extracted from the following two-line orbital elements,

1 27607U 02058C   20336.14975723  .00000152  00000-0  42360-4 0  9996
2 27607  64.5553 224.7024 0030593 113.2654 247.1674 14.75685210965454
Epoch (UTC): 01 December 2020 03:35:39
Eccentricity: 0.0030593
inclination: 64.5553°
perigee height: 621 km
apogee height: 664 km
right ascension of ascending node: 224.7024°
argument of perigee: 113.2654°
revolutions per day: 14.75685210
mean anomaly at epoch: 247.1674°
orbit number at epoch: 96545

The dashed part of the orbit path shows where the satellite is in the earth's shadow,  

DLR